Location: Newark
(47.5500°N, 8.6167°E)
Time: 11:21:53
(UTC+00:00)

Envisat - Pass Details

Date: 02 February 2020
Orbit: 764 x 766 km, 98.1° (Epoch: 25 February)

Event Time Altitude Azimuth Distance (km) Brightness Sun altitude
Rises 06:12:59 0° 14° (NNE) 3,244 6.2 -6.9°
Reaches altitude 10° 06:15:18 10° 15° (NNE) 2,313 5.5 -6.5°
Maximum altitude 06:20:25 85° 104° (ESE) 774 3.1 -5.7°
Drops below altitude 10° 06:25:29 10° 193° (SSW) 2,295 5.6 -4.9°
Sets 06:27:47 0° 194° (SSW) 3,217 6.3 -4.5°
